Find Starlink 5274

NORAD ID: 55395 Int'l Des: 2023-014 Owner: SPXS Country: US Constellation: starlink operational
LEOCIRCULAR

实时位置

正在加载3D地球...

关于 Starlink 5274

正在加载描述...

即将过境

Passes for default location (London). Set your location on the main map for personalized predictions.

高度历史

Loading altitude history...

两行轨道根数

1 55395U 23014E 26132.60683146 -.00000161 00000-0 -57203-5 0 9997
2 55395 69.9991 263.1220 0002976 269.5822 90.4996 14.98329795181639
Epoch: May 12, 2026 • Age: 16 hours

当前状态

高度 583.8 km
速度 7.57 km/s
星下点 61.06°N, 32.1°W
发射日期 Jan 31, 2023
运行时间 3.2 years
类型 internet

技术详情

分类 Payload
质量 305.00 kg
干质量 290.00 kg
总质量 305.00 kg
长度 0.20 m
直径 2.80 m
跨度 9.00 m
形状 Box + pan
制造商 SPXS
平台类型 Starlink
阶段状态 In Orbit
所有者/国家 SPXS/US

Most Searched